星链-31148 (STARLINK-31148 )

导读 | 星芒AI

STARLINK-31148 是 SpaceX Starlink 卫星互联网项目中的一颗低轨通信卫星,属于 Starlink 群体部署的一部分。该卫星由 SpaceX 制造并发射,旨在为全球用户提供高速、低延迟的互联网服务。它运行在约 550 公里的轨道高度,采用先进推进系统和激光通信技术,以提升网络效率和稳定性。STARLINK-31148 的部署有助于扩大 Starlink 在偏远和农村地区的网络覆盖,支持通信、教育和应急响应等多种应用场景。

基本信息
目录编号:
58741
目录名称:
STARLINK-31148
国际标识:
2024-005P
轨道中心:
EARTH
卫星名称:
星链-31148
卫星全名:
星链-31148 (STARLINK-31148 )
卫星状态:
在轨 (已飞行712 天)
发射日期:
2024-01-07 UTC
国别 :
美国 (US)
星等 :
--
轨道信息
数据来源 国际轨道数据
星历时间: 2025-12-19T12:54:55+0800
16小时前
查看轨道信息
半长轴: 6937.211km
偏心率: 0.0000784
轨道倾角: 43.000°
近地点辐角 303.101°
升交点赤经 299.055°
平近点角 56.975°
近地点: 558.53km
远地点: 559.618km
周期: 95.838分钟
每日圈数: 15.025378
详细信息
固有亮度:
5
最大亮度:
0.3
卫星平台:
Starlink v2.0 mini
覆盖范围:
全球
运营商:
太空探索技术公司
运营商所在国:
美国
制造商(研发单位):
太空探索技术公司
制造商所在国:
美国
使用方式:
暂无
卫星简介
星链(Starlink)计划是由太空探索技术公司(SpaceX)提出的一个巨型低轨卫星互联网星座项目,计划在2019年至2024年间在太空搭建由约1.2万颗卫星组成的“星链”网络,其中1584颗将部署在地球上空550千米处的近地轨道,并从2020年开始工作。该卫星仍在工作。
2D轨道图
3D轨道图
轨道高度分析图
轨道倾角分析图
轨道综合分析图
查看轨道综合分析图